Regional Weather Roundup
Issued by NWS Sterling, VA

Home | Current Version | Previous Version | Graphics & Text | Print | Product List | Glossary On
Versions: 1 2 3 4 5 6 7 8 9 10 11 12 13 14 15 16 17 18 19 20 21 22 23 24 25 26 27 28 29 30 31 32 33 34 35 36 37 38 39 40 41 42 43 44 45 46 47 48 49 50
000
ASUS41 KLWX 231311
RWRLWX

REGIONAL WEATHER ROUNDUP
NATIONAL WEATHER SERVICE BALTIMORE MD/WASHINGTON DC
900 AM EDT WED AUG 23 2017

Note: "FAIR" indicates few or no clouds below 12,000 feet
with no significant weather and/or obstructions to visibility.
 TC=TEMPERATURE CELSIUS

 * =Non NWS site. Station does not report precipitation (e.g. rain,
    snow, etc.), thunder, or fog.

DCZ001-MDZ009-015-VAZ040>042-051-053>054-231400-
WASHINGTON METRO

CITY           SKY/WX    TMP DP  RH WIND       PRES   REMARKS
WASHINGTON NAT PTSUNNY   78  70  76 NW10      29.87R
DULLES         CLOUDY    76  69  79 NW9       29.88R
ANDREWS AFB    PTSUNNY   77  67  71 NW12      29.86R
FT BELVOIR     CLOUDY    78  67  70 N5        29.86R
QUANTICO       CLOUDY    78  70  76 N8        29.87S
COLLEGE PARK*  PTSUNNY   77  68  73 NW6       29.86R
LEESBURG*      CLOUDY    75  70  83 N12       29.90R
MANASSAS*      CLOUDY    76  68  76 NW9       29.89R
GAITHERSBURG*  CLOUDY    74  69  85 NW6       29.90R

$$

MDZ006>007-011-014-231400-
BALTIMORE METRO

CITY           SKY/WX    TMP DP  RH WIND       PRES   REMARKS
BWI AIRPORT    PTSUNNY   78  70  76 NW12      29.85R
MD SCIENCE CTR   N/A     80  69  69 MISG      29.85S
MARTIN STATE   MOSUNNY   79  73  83 NW8       29.86R
ANNAPOLIS      MOSUNNY   81  74  79 NW7       29.85R
FORT MEADE*    PTSUNNY   77  68  73 NW6       29.88S

$$

MDZ012-015-019>023-231400-
MARYLAND EASTERN SHORE

CITY           SKY/WX    TMP DP  RH WIND       PRES   REMARKS
OCEAN CITY     SUNNY     82  75  79 VRB5      29.84R
SALISBURY      SUNNY     82  72  71 W7        29.84R
BAY BRIDGE AP* SUNNY     77  70  78 NW6       29.85S
CAMBRIDGE*     MOSUNNY   81  70  69 NW10      29.84S
EASTON*        MOSUNNY   81  72  74 N6        29.88

$$

MDZ017>025-231400-
SOUTHERN MARYLAND

CITY           SKY/WX    TMP DP  RH WIND       PRES   REMARKS
PATUXENT RIVER PTSUNNY   80  71  74 NW10      29.85R
ST INIGOES     SUNNY     82  71  69 VRB5      29.84S
LEONARDTOWN*   MOSUNNY   79  68  69 NW3       29.88R

$$

MDZ003>005-231400-
NORTH CENTRAL MARYLAND

CITY           SKY/WX    TMP DP  RH WIND       PRES   REMARKS
FREDERICK*     MOSUNNY   79  66  65 N5        29.92R
HAGERSTOWN APT MOSUNNY   74  65  73 NW6       29.91R
WESTMINSTER*   MOSUNNY   73  68  83 NW6       29.89S

$$

MDZ501>502-231400-
WESTERN MARYLAND

CITY           SKY/WX    TMP DP  RH WIND       PRES   REMARKS
OAKLAND*       CLOUDY    59  59 100 CALM      29.98R
CUMBERLAND*    CLOUDY    70  64  83 CALM      29.97R

$$

VAZ025>031-231400-
SHENANDOAH VALLEY

CITY           SKY/WX    TMP DP  RH WIND       PRES   REMARKS
WINCHESTER*    PTSUNNY   70  63  78 NW8       29.92R
FRONT ROYAL*   CLOUDY    72  68  88 NW3       29.91R
LURAY*         CLOUDY    75  70  83 CALM      29.91S
NEW MARKET*    CLOUDY    75  67  75 NE5       29.91R
STAUNTON*      CLOUDY    73  67  82 CALM      29.94R
WAYNESBORO*    CLOUDY    73  68  83 W5        29.93R

$$

WVZ021-048>050-054>055-231400-
EASTERN WEST VIRGINIA PANHANDLE

CITY           SKY/WX    TMP DP  RH WIND       PRES   REMARKS
MARTINSBURG    MOSUNNY   74  62  66 NW8       29.91R
PETERSBURG*    MOSUNNY   74  69  85 CALM      29.93S

$$

VAZ036>039-050-231400-
CENTRAL FOOTHILLS

CITY           SKY/WX    TMP DP  RH WIND       PRES   REMARKS
CHARLOTTESVILL CLOUDY    78  71  79 N3        29.88R
CULPEPER*      CLOUDY    75  72  89 CALM      29.89S
ORANGE*        CLOUDY    73  70  88 NE3       29.88S
GORDONSVILLE*  CLOUDY    76  73  88 NE3       29.88R
WARRENTON*     CLOUDY    76  67  74 CALM      29.88R

$$

VAZ055>057-231400-
NORTH AND CENTRAL PIEDMONT

CITY           SKY/WX    TMP DP  RH WIND       PRES   REMARKS
FREDERICKSBRG* PTSUNNY   79  69  72 N6        29.86S
STAFFORD*      CLOUDY    76  71  82 N8        29.91S

$$

NCZ024-NYZ072-PAZ021-071-VAZ022-071-231400-
OTHER REGIONAL OBSERVATIONS

CITY           SKY/WX    TMP DP  RH WIND       PRES   REMARKS
NEW YORK CITY  CLOUDY    71  60  68 VRB6      29.85R
PHILADELPHIA   CLOUDY    77  69  76 NW13      29.84R
PITTSBURGH     MOSUNNY   68  59  73 N10       29.96R
ROANOKE        LGT RAIN  75  68  78 W6        29.95R
RICHMOND       MOSUNNY   80  73  79 NW5       29.86R
RALEIGH        MOSUNNY   80  74  81 SW6       29.90R

$$

ANZ530>537-231400-
MARINE OBSERVATIONS

STATION/POSITION TIME  TEMP    WIND        PRES
                       AIR SEA DIR/SP/G
                 (UTC) (F)     (DEG/KT/KT) (MB)
THOMAS PT LIGHT  1200   76 81  310/  9/ 11   N/A
BALT KEY BRIDGE  1242   78     340/ 11/ 14 1010.5R
COVE POINT       1242   79     350/ 10/ 12 1011.4R
LEWISETTA        1242   81 83  350/  4/  7 1010.6R
SOLOMONS ISLAND  1242   80 82  330/  5/  7   N/A
PINEY POINT      1242          350/ 12/ 14   N/A

$$




USA.gov is the U.S. government's official web portal to all federal, state and local government web resources and services.